www.pogodaiklimat.ru

Погода и климат >> Архив погоды >> Австралия >> Новый Южный Уэльс >> Уафт Клифс


ПОГОДА в Уафт Клифс

  • Прогноз погоды в Уафт Клифс
  • Монитор погоды в Уафт Клифс

АРХИВ ПОГОДЫ в Уафт Клифс

Время (UTC), дата Ветер
(напр.,м/с)
 
Видим.   Явления Облачность Т
(С)
Тd
(С)
f
(%)
Тe
(С)
Тes
(С)
Комфортность P
(гПа)
Po
(гПа)
Тmin
(С)
Tmax
(С)
R
(мм)
R24
(мм)
S
(см)
01 20.06 З 1 н/о н/о +10.5 -0.6 46 +11 +11 1027.4 1008.2
02 20.06 Ю 4 н/о н/о +11.7 -1.8 39 +10 +10 1026.8 1007.6 +1.4
04 20.06 Ю 5 н/о н/о +12.5 -3.3 33 +11 +11 1025.2 1006.0
05 20.06 Ю 5 н/о н/о +13.0 -2.9 33 +11 +11 1024.9 1005.7
07 20.06 Ю 6 н/о н/о +12.0 -4.6 31 +10 +10 1025.1 1005.9
08 20.06 Ю 4 н/о н/о +10.4 -4.4 35 +8 +8 1025.8 1006.6
10 20.06 ЮВ 4 н/о н/о +7.8 -3.4 45 +5 +5 1027.1 1007.9
11 20.06 Ю 3 н/о н/о +7.0 -3.5 47 +5 +5 1027.4 1008.2
13 20.06 Ю 4 н/о н/о +6.5 -3.4 49 +3 +3 1027.7 1008.5
14 20.06 Ю 4 н/о н/о +4.9 -3.6 54 +2 +2 1027.6 1008.4 +13.6
16 20.06 Ю 3 н/о н/о +3.5 -3.7 59 0 0 1027.3 1008.1
17 20.06 штиль 0 н/о н/о +2.0 -4.1 64 +1 +1 1027.4 1008.2
19 20.06 Ю 3 н/о н/о +2.4 -3.7 64 -1 -1 1027.1 1007.9
20 20.06 З 1 н/о н/о +1.8 -3.9 66 +2 +2 1027.7 1008.5
22 20.06 ЮЗ 2 н/о н/о +1.6 -4.1 66 -1 -1 1029.0 1009.8
23 20.06 Ю 4 н/о н/о +5.0 -3.3 55 +2 +2 1029.7 1010.4
01 21.06 Ю 5 н/о н/о +10.5 -0.9 45 +8 +8 1030.1 1010.8
02 21.06 Ю 6 н/о н/о +11.7 -0.8 42 +9 +9 1029.5 1010.2 +0.4
04 21.06 Ю 6 н/о н/о +13.0 -2.9 33 +11 +11 1028.1 1008.9
05 21.06 Ю 7 н/о н/о +13.4 -1.7 35 +11 +11 1027.8 1008.6
07 21.06 Ю 6 н/о н/о +12.4 -1.9 37 +10 +10 1028.2 1009.0
08 21.06 Ю 5 н/о н/о +10.9 -1.5 42 +9 +9 1028.3 1009.1
10 21.06 Ю 4 н/о н/о +8.7 -0.9 51 +6 +6 1028.8 1009.6
11 21.06 Ю 5 н/о н/о +8.5 -0.8 52 +6 +6 1028.8 1009.6
13 21.06 Ю 5 н/о н/о +6.9 -1.0 57 +3 +3 1028.8 1009.6
14 21.06 Ю 4 н/о н/о +5.7 -1.0 62 +2 +2 1028.5 1009.3 +13.7
16 21.06 Ю 4 н/о н/о +3.7 -1.4 69 -1 -1 1028.3 1009.1
17 21.06 Ю 5 н/о н/о +4.2 -0.8 70 -0 -0 1028.2 1009.0
19 21.06 Ю 4 н/о н/о +3.7 -0.3 75 -1 -1 1027.9 1008.7
20 21.06 Ю 5 н/о н/о +3.4 -0.4 76 -1 -1 1028.3 1009.1
22 21.06 Ю 4 н/о н/о +3.8 +0.5 79 -1 -1 1028.8 1009.6
23 21.06 Ю 4 н/о н/о +6.0 +1.5 73 +2 +2 1029.5 1010.2
01 22.06 ЮВ 4 н/о н/о +10.7 +2.8 58 +8 +8 1029.9 1010.6
02 22.06 ЮВ 5 н/о н/о +11.8 +2.3 52 +10 +10 1028.7 1009.5 +2.5
04 22.06 ЮВ 7 н/о н/о +12.6 -1.7 37 +10 +10 1026.9 1007.7
05 22.06 Ю 6 н/о н/о +12.9 0.0 41 +11 +11 1026.5 1007.3
07 22.06 Ю 6 н/о н/о +12.0 -1.2 40 +10 +10 1026.5 1007.3
08 22.06 Ю 5 н/о н/о +11.0 -1.4 42 +9 +9 1026.7 1007.5
10 22.06 Ю 4 н/о н/о +8.5 -0.3 54 +6 +6 1027.0 1007.8
11 22.06 Ю 4 н/о н/о +7.1 -0.6 58 +4 +4 1027.1 1007.9
13 22.06 Ю 4 н/о н/о +4.8 -1.4 64 +1 +1 1027.2 1008.0
14 22.06 Ю 4 н/о н/о +3.9 -1.7 67 0 0 1027.1 1007.9 +13.8
16 22.06 Ю 5 н/о н/о +5.2 -1.0 64 +1 +1 1026.8 1007.6
17 22.06 Ю 5 н/о н/о +5.3 -0.9 64 +1 +1 1026.7 1007.5
19 22.06 ЮЗ 1 н/о н/о +1.3 -2.5 76 -0 -0 1026.6 1007.4
20 22.06 Ю 4 н/о н/о +1.4 -2.2 77 -3 -3 1027.1 1007.9
22 22.06 Ю 5 н/о н/о +1.5 -1.6 80 -4 -4 1028.0 1008.8
23 22.06 Ю 5 н/о н/о +4.0 -0.4 73 -1 -1 1028.6 1009.4
01 23.06 Ю 6 н/о н/о +9.7 +0.3 52 +7 +7 1028.5 1009.3
02 23.06 Ю 8 н/о н/о +10.9 0.0 47 +8 +8 1027.5 1008.3 +1.1
04 23.06 ЮВ 6 н/о н/о +12.5 -1.1 39 +10 +10 1026.1 1006.9
05 23.06 Ю 6 н/о н/о +12.5 -1.4 38 +10 +10 1026.0 1006.8
07 23.06 Ю 6 н/о н/о +11.9 -1.9 38 +10 +10 1026.3 1007.1
08 23.06 Ю 4 н/о н/о +10.1 -1.0 46 +8 +8 1026.7 1007.5
10 23.06 Ю 5 н/о н/о +8.2 -0.8 53 +5 +5 1027.8 1008.6
11 23.06 Ю 4 н/о н/о +6.0 -1.4 59 +3 +3 1028.3 1009.1
13 23.06 Ю 6 н/о н/о +7.0 -0.4 59 +3 +3 1028.0 1008.8
14 23.06 Ю 6 н/о н/о +6.7 -0.7 59 +3 +3 1028.1 1008.9 +13.2
16 23.06 Ю 5 н/о н/о +6.0 -0.9 61 +2 +2 1028.2 1009.0
17 23.06 ЮВ 3 н/о н/о +4.8 -1.2 65 +2 +2 1027.9 1008.7
19 23.06 Ю 4 н/о н/о +2.3 -1.8 74 -2 -2 1028.4 1009.2
20 23.06 Ю 4 н/о н/о +1.9 -2.1 75 -3 -3 1028.6 1009.4
22 23.06 Ю 4 н/о н/о +2.6 -1.2 76 -2 -2 1030.2 1010.9
23 23.06 ЮЗ 3 н/о н/о +4.6 -0.2 71 +1 +1 1030.4 1011.1
01 24.06 ЮВ 3 н/о н/о +10.5 +1.6 54 +9 +9 1030.4 1011.1
02 24.06 Ю 4 н/о н/о +12.0 +1.6 49 +10 +10 1029.7 1010.4 +1.5
04 24.06 ЮВ 3 н/о н/о +14.9 +1.1 39 +15 +15 1027.9 1008.7
05 24.06 ЮВ 3 н/о н/о +15.5 +0.5 36 +15 +15 1027.6 1008.4
07 24.06 ЮВ 4 н/о н/о +14.6 +0.5 38 +14 +14 1028.0 1008.8
08 24.06 ЮВ 3 н/о н/о +13.0 +0.7 43 +12 +12 1028.5 1009.3
10 24.06 Ю 4 н/о н/о +12.0 +1.6 49 +10 +10 1029.5 1010.2
11 24.06 Ю 4 н/о н/о +11.6 +1.8 51 +10 +10 1029.5 1010.2
13 24.06 Ю 3 н/о н/о +8.9 +1.1 58 +7 +7 1029.9 1010.6
14 24.06 Ю 4 н/о н/о +9.2 +1.4 58 +7 +7 1029.6 1010.3 +15.9
16 24.06 Ю 3 н/о н/о +9.5 +1.4 57 +8 +8 1028.7 1009.5
17 24.06 штиль 0 н/о н/о +8.9 +1.3 59 +9 +9 1028.4 1009.2
19 24.06 В 3 н/о н/о +8.0 +1.6 64 +6 +6 1028.2 1009.0
20 24.06 Ю 4 н/о н/о +8.0 +1.8 65 +5 +5 1029.0 1009.8
22 24.06 Ю 2 н/о н/о +8.8 +3.2 68 +7 +7 1030.4 1011.1
23 24.06 Ю 3 н/о н/о +9.6 +2.9 63 +8 +8 1030.8 1011.5
01 25.06 В 5 н/о н/о +12.3 +4.3 58 +10 +10 1030.7 1011.4
02 25.06 В 5 н/о н/о +14.2 +4.8 53 +13 +13 1030.3 1011.0 +7.8
04 25.06 ЮВ 2 н/о н/о +16.1 +5.1 48 +16 +16 1028.5 1009.3
05 25.06 В 4 н/о н/о +17.6 +5.2 44 +17 +17 1028.5 1009.3
07 25.06 ЮВ 4 н/о н/о +16.9 +4.9 45 +16 +16 1029.1 1009.9
08 25.06 Ю 4 н/о н/о +14.7 +4.7 51 +14 +14 1029.4 1010.1
10 25.06 ЮВ 3 н/о н/о +12.5 +4.7 59 +11 +11 1030.3 1011.0
11 25.06 Ю 5 н/о н/о +12.2 +4.9 61 +10 +10 1030.2 1010.9
13 25.06 ЮВ 5 н/о н/о +12.2 +5.1 62 +10 +10 1030.4 1011.1
14 25.06 В 5 н/о н/о +11.5 +4.7 63 +9 +9 1030.2 1010.9 +18.0
16 25.06 В 4 н/о н/о +10.2 +4.8 69 +8 +8 1030.1 1010.8
17 25.06 В 4 н/о н/о +7.9 +4.1 77 +5 +5 1029.8 1010.5
19 25.06 В 4 н/о н/о +6.4 +3.6 82 +3 +3 1029.8 1010.5
20 25.06 ЮВ 3 н/о н/о +6.8 +3.9 82 +4 +4 1030.1 1010.8
22 25.06 В 1 н/о н/о +7.0 +4.0 81 +7 +7 1031.4 1012.1
23 25.06 В 3 н/о н/о +9.2 +4.6 73 +7 +7 1031.6 1012.3
01 26.06 В 4 н/о н/о +13.6 +6.0 60 +12 +12 1031.6 1012.3
02 26.06 В 4 н/о н/о +15.4 +6.4 55 +15 +15 1030.9 1011.6 +6.1
04 26.06 В 4 н/о н/о +18.8 +6.3 44 +19 +19 1029.0 1009.8
05 26.06 В 4 н/о н/о +19.5 +6.3 42 +20 +20 1028.5 1009.3
07 26.06 В 5 н/о н/о +18.9 +5.7 42 +19 +19 1028.2 1009.0
08 26.06 ЮВ 4 н/о н/о +16.8 +5.7 48 +16 +16 1028.3 1009.1
10 26.06 В 4 н/о н/о +13.3 +5.2 58 +12 +12 1028.7 1009.5
11 26.06 В 3 н/о н/о +12.2 +5.4 63 +11 +11 1028.9 1009.7
13 26.06 В 3 н/о н/о +10.3 +4.5 67 +8 +8 1028.9 1009.7
14 26.06 В 3 н/о н/о +10.0 +4.6 69 +8 +8 1029.1 1009.9 +20.2
16 26.06 ЮВ 4 н/о н/о +11.1 +5.2 67 +9 +9 1029.0 1009.8
17 26.06 ЮВ 4 н/о н/о +10.9 +5.0 67 +9 +9 1028.7 1009.5
19 26.06 В 4 н/о н/о +7.2 +3.8 79 +4 +4 1028.3 1009.1
20 26.06 В 5 н/о н/о +7.4 +4.0 79 +4 +4 1028.4 1009.2
22 26.06 В 5 н/о н/о +9.8 +4.4 69 +7 +7 1029.4 1010.1
23 26.06 В 5 н/о н/о +12.0 +5.0 62 +10 +10 1029.8 1010.5

 

Местоположение метеостанции Уафт Клифс (Новый Южный Уэльс, Австралия): широта -30.85 долгота 143.07 высота над уровнем моря 158 м.

В архиве по умолчанию представлена погода в Уафт Клифс за последнюю неделю. Архивные данные за месяц целиком и за предыдущие месяцы, начиная с января 2011 года, Вы можете получить, выбрав интересующий диапазон дат из раскрывающегося списка и нажав кнопку "Ввод!".


*Определитесь, кто Вы:
робот инопланетянин человек

Внимание! Время в таблицах - всемирное. Для получения местного времени необходимо прибавить поправку, которая равна 10 ч.

Смотрите также архив погоды в соседних городах и на ближайших метеорологических станциях:

Погода в Уилкании (Новый Южный Уэльс, Австралия) (80 км)
Погода в Фоулерс Гэп (Новый Южный Уэльс, Австралия) (133 км)
Погода в Тибообере (Новый Южный Уэльс, Австралия) (184 км)
Погода в Брокен-Хилл аэропорту (Новый Южный Уэльс, Австралия) (199 км)
Погода в Айванхо (Новый Южный Уэльс, Австралия) (255 км)
Погода в Кобар аэропорту (Новый Южный Уэльс, Австралия) (271 км)
Погода в Кобаре (Новый Южный Уэльс, Австралия) (272 км)
Погода в Бурке (Новый Южный Уэльс, Австралия) (291 км)
Погода в Таргоминде (Квинсленд, Австралия) (327 км)
Погода в Юнте (Южная Австралия, Австралия) (382 км)

Пояснения к столбцам:

Ветер - указаны скорость ветра в м/с - средняя за 10 мин, порывы в срок и между сроками (в фигурных скобках) и направление, откуда дует ветер: С - северный, СВ - северо-восточный, В - восточный, ЮВ - юго-восточный, Ю - южный, ЮЗ - юго-западный, З - западный, СЗ - северо-западный.
Видимость - горизонтальная дальность видимости в метрах или километрах. При видимости от 1 до 10 км при отсутствии осадков обычно наблюдается дымка, при ухудшении видимости до 1 км и менее - туман. В сухую погоду видимость может ухудшаться дымом, пылью или мглою.
Явления - указаны атмосферные явления, наблюдавшиеся в срок или в последний час перед сроком; фигурными скобками обозначены явления, наблюдавшиеся между сроками (за 1-3 часа до срока); квадратными скобками обозначены град или гололедные отложения с указанием их диаметра в мм.
Облачность - указаны через наклонную черту общая и нижняя облачность в баллах и высота нижней границы облаков в метрах; квадратными скобками обозначены формы облаков: Ci - перистые, Cs - перисто-слоистые, Cc - перисто-кучевые, Ac - высококучевые, As - высокослоистые, Sc - слоисто-кучевые, Ns - слоисто-дождевые, Cu - кучевые, Cb - кучево-дождевые. Подробнее классификацию облаков см. в Атласе облаков (PDF).
T - Температура воздуха - температура, измеренная на высоте 2 м над землей.
Td - Температура точки росы - температура, при понижении до которой содержащийся в воздухе водяной пар достигнет насыщения.
f - Относительная влажность воздуха - влажноcть воздуха, измеренная на высоте 2 м над землей.
Te - Эффективная температура - температура, которую ощущает одетый по сезону человек в тени. Характеристика душности погоды. При расчете учитывается влияние влажности воздуха и скорости ветра на теплоощущения человека.
Tes - Эффективная температура на солнце - температура, которую ощущает человек, с поправкой на солнечный нагрев. Характеристика знойности погоды. Зависит от высоты солнца над горизонтом, облачности и скорости ветра. Ночью, в пасмурную погоду, а также при ветре 12 м/с и более поправка равна нулю.
P - Атмосферное давление - приведенное к уровню моря атмосферное давление.
Po - Атмосферное давление - измеренное на уровне метеостанции атмосферное давление.
Tmin - Минимальная температура - минимум температуры воздуха на высоте 2 м над землей.
Tmax - Максимальная температура - максимум температуры воздуха на высоте 2 м над землей.
R - Количество осадков - Количество выпавших осадков за период времени, мм. При наведении курсора мыши на число - период времени, за который выпало указанное количество осадков.
R24 - Количество осадков - Количество выпавших осадков за 24 часа, мм.
S - Снежный покров - Высота снежного покрова, см. При наведении курсора мыши на число - состояние снежного покрова и степень покрытия местности в баллах.